BIOMASS

Last updated on Mon Feb 16 2026 00:02:31 GMT+0000 (Coordinated Universal Time)

1 63772U 25090A 26046.52989526 .00001415 00000+0 25794-3 0 9995 2 63772 98.0729 235.5950 0001414 89.7236 270.4131 14.67541617 42844
UTC large
Height (km)
Speed (km/s)
/
Latitude / Longitude
Inclination (degrees)
Orbital Period (minutes)
Azimuth
Elevation
Range (km)
Doppler Factor

Next 0 passes for location: London (51.5072 / 0.1276)

Sorry there are no passes over London.